This is the latest recevied weather packets stored in our database for station/object KM8V-8. If no packets are shown the sender has not sent any weather packets the latest 10 day(s).
| Time | Temp. | Humidity | Pressure | Rain* | Wind** | Luminosity | Snow |
|---|---|---|---|---|---|---|---|
| 1777471517 | 11.11° C | 99% | 1010.6 hPa | 0.51 mm | - | 65 W/m² | - |
| 1777471217 | 11.11° C | 99% | 1010.5 hPa | 0.51 mm | - | 48 W/m² | - |
| 1777470917 | 11.11° C | 99% | 1010.2 hPa | 0.76 mm | - | 82 W/m² | - |
| 1777470617 | 11.11° C | 99% | 1010.3 hPa | 0.76 mm | - | 80 W/m² | - |
| 1777470318 | 11.11° C | 99% | 1010.3 hPa | 1.02 mm | - | 86 W/m² | - |
| 1777470017 | 11.11° C | 99% | 1010.2 hPa | 1.27 mm | - | 90 W/m² | - |
| 1777469732 | 11.67° C | 99% | 1010.2 hPa | 1.52 mm | - | 98 W/m² | - |
| 1777469433 | 11.67° C | 99% | 1010.2 hPa | 1.78 mm | - | 85 W/m² | - |
| 1777469133 | 11.67° C | 99% | 1010.3 hPa | 2.03 mm | - | 53 W/m² | - |
| 1777468833 | 11.67° C | 99% | 1010.2 hPa | 2.03 mm | - | 71 W/m² | - |
| 1777468518 | 11.67° C | 99% | 1010.2 hPa | 2.03 mm | - | 62 W/m² | - |
| 1777468218 | 11.67° C | 99% | 1010 hPa | 2.03 mm | - | 100 W/m² | - |
| 1777467918 | 11.67° C | 99% | 1009.9 hPa | 2.03 mm | - | 128 W/m² | - |
| 1777467618 | 11.67° C | 99% | 1009.8 hPa | 2.29 mm | - | 83 W/m² | - |
| 1777467319 | 11.67° C | 99% | 1010.2 hPa | 2.03 mm | - | 47 W/m² | - |
| 1777467018 | 11.67° C | 99% | 1010.3 hPa | 1.78 mm | - | 36 W/m² | - |
| 1777466719 | 11.11° C | 99% | 1010.4 hPa | 1.52 mm | - | 36 W/m² | - |
| 1777466422 | 11.67° C | 99% | 1010.3 hPa | 1.27 mm | - | 14 W/m² | - |
| 1777466119 | 11.11° C | 99% | 1010.1 hPa | 1.27 mm | - | 14 W/m² | - |
| 1777465820 | 11.11° C | 99% | 1010.4 hPa | 0.76 mm | - | 24 W/m² | - |
| 1777465519 | 11.11° C | 99% | 1010.5 hPa | 0.51 mm | - | 66 W/m² | - |
| 1777465219 | 11.11° C | 99% | 1010.2 hPa | 0.51 mm | - | 71 W/m² | - |
| 1777464919 | 11.11° C | 99% | 1010 hPa | 0.51 mm | - | 37 W/m² | - |
| 1777464620 | 11.11° C | 99% | 1010.1 hPa | 0.51 mm | - | 42 W/m² | - |
| 1777464319 | 11.11° C | 99% | 1010.5 hPa | 0.51 mm | - | 40 W/m² | - |
* Rain latest hour (hover to see other rain measurements)
** Current wind speed in m/s (hover to see current wind gust speed)